This demonstration page uses our WeatherBlox Daily Observations layout. Learn more.

Left ArrowRight Arrow

Hourly Observations for June 28, 2021

Temp ( °F °C ) Dew Point ( °F °C ) Humidity (%) Winds ( mph kmh ) Pressure ( in mb ) Visibility ( mi km ) Precip ( " mm )
12:53 am 00:53 Clear 61 16.1 48 8.9 63 63 N N/A 30.14 1021 10 16 N/A
1:53 am 01:53 Clear 60 15.6 48 8.9 65 65 N N/A 30.14 1021 10 16 N/A
2:53 am 02:53 Clear 60 15.6 48 8.9 65 65 N N/A 30.13 1020 10 16 N/A
3:53 am 03:53 Clear 58 14.4 48 8.9 70 70 NE 6 9 30.14 1021 10 16 N/A
4:53 am 04:53 Clear 56 13.3 49 9.4 77 77 E 5 7 30.14 1021 10 16 N/A
5:53 am 05:53 Sunny 52 11.1 47 8.3 83 83 S 5 7 30.16 1021 10 16 N/A
6:53 am 06:53 Sunny 60 15.6 48 8.9 65 65 N N/A 30.15 1021 10 16 N/A
7:53 am 07:53 Sunny 65 18.3 49 9.4 56 56 N N/A 30.15 1021 10 16 N/A
8:53 am 08:53 Sunny 71 21.7 50 10 47 47 N N/A 30.14 1021 10 16 N/A
9:53 am 09:53 Sunny 78 25.6 50 10 37 37 VRB 3 6 30.13 1020 10 16 N/A
10:53 am 10:53 Sunny 81 27.2 49 9.4 33 33 ESE 6 9 30.12 1020 10 16 N/A
11:53 am 11:53 Sunny 82 27.8 48 8.9 31 31 SSW 6 9 30.11 1020 10 16 N/A
12:53 pm 12:53 Sunny 86 30 46 7.8 25 25 S 8 13 30.10 1019 10 16 N/A
1:53 pm 13:53 Sunny 88 31.1 44 6.7 22 22 E 6 9 30.07 1018 10 16 N/A
2:53 pm 14:53 Sunny 89 31.7 45 7.2 22 22 N N/A 30.05 1018 10 16 N/A
3:53 pm 15:53 Sunny 90 32.2 45 7.2 21 21 N N/A 30.03 1017 10 16 N/A
4:53 pm 16:53 Sunny 92 33.3 44 6.7 19 19 NNW 5 7 30.01 1016 10 16 N/A
5:53 pm 17:53 Sunny 93 33.9 44 6.7 18 18 N N/A 30.01 1016 10 16 N/A
6:53 pm 18:53 Sunny 92 33.3 46 7.8 21 21 E 10 17 29.99 1016 10 16 N/A
7:53 pm 19:53 Sunny 89 31.7 46 7.8 23 23 ENE 13 20 29.98 1015 10 16 N/A
8:53 pm 20:53 Sunny 84 28.9 47 8.3 27 27 ENE 14 22 29.98 1015 10 16 N/A
9:53 pm 21:53 Clear 78 25.6 47 8.3 33 33 E 14 22 29.98 1015 10 16 N/A
10:53 pm 22:53 Clear 74 23.3 46 7.8 37 37 E 10 17 29.99 1016 10 16 N/A
11:53 pm 23:53 Clear 71 21.7 46 7.8 41 41 E 8 13 29.99 1016 10 16 N/A

Powered by AerisWeather